Weather History for Tampa Executive, FL

Change the Weather History Date:

Friday, October 19, 2012

  Actual Average (KTPA) Record (KTPA)
Temperature  
Mean Temperature 70 °F 75 °F  
Max Temperature 89 °F 84 °F 89 °F (1960)
Min Temperature 50 °F 67 °F 48 °F (2009)
Degree Days  
Heating Degree Days 0 0  
Month to date heating degree days 0  
Since 1 July heating degree days 0  
Cooling Degree Days 4 11  
Month to date cooling degree days 241  
Year to date cooling degree days 3257  
Growing Degree Days 20 (Base 50)    
Moisture  
Dew Point 62 °F    
Average Humidity 77    
Maximum Humidity 100    
Minimum Humidity 46    
Precipitation  
Precipitation 0.00 in 0.06 in 3.61 in (1944)
Month to date precipitation 1.61  
Year to date precipitation 41.63  
Sea Level Pressure  
Sea Level Pressure 29.86 in    
Wind  
Wind Speed 1 mph (WSW)    
Max Wind Speed 7 mph    
Max Gust Speed -    
Visibility 8 miles    
Events      
T = Trace of Precipitation, MM = Missing Value Source: NWS Daily Summary

Daily Weather History Graph

Daily Weather History Graph

Search for Another Location

Airport:

Trip Planner

Search our weather history database for the weather conditions in past years. The results will help you decide how hot, cold, wet, or windy it might be!

Date:

Astronomy

Oct. 19, 2012 Rise Set
Actual Time 7:32 AM EDT 6:55 PM EDT
Civil Twilight 7:08 AM EDT 7:19 PM EDT
Nautical Twilight 6:41 AM EDT 7:46 PM EDT
Astronomical Twilight 6:13 AM EDT 8:13 PM EDT
Moon 11:57 AM EDT (10/19) 10:49 PM EDT (10/19)
Length of Visible Light 12h 10m
Length of Day
11h 23m
Waxing Crescent, 23% of the Moon is Illuminated
Oct 19
Waxing Crescent
Oct 21
First Quarter
Oct 29
Full
Nov 6
Last Quarter
Nov 13
New

Hourly Weather History & Observations

Time (EDT) Temp. Heat Index Dew Point Humidity Pressure Visibility Wind Dir Wind Speed Gust Speed Precip Events Conditions
2:35 AM 59.0 °F - 57.2 °F 94% 29.88 in 5.0 mi Calm Calm - N/A   Clear
2:55 AM 59.0 °F - 55.4 °F 88% 29.87 in 7.0 mi Calm Calm - N/A   Clear
3:15 AM 57.2 °F - 55.4 °F 94% 29.87 in 4.0 mi Calm Calm - N/A   Clear
3:35 AM 57.2 °F - 55.4 °F 94% 29.86 in 2.0 mi Calm Calm - N/A   Clear
3:55 AM 57.2 °F - 55.4 °F 94% 29.86 in 4.0 mi Calm Calm - N/A   Clear
4:15 AM 55.4 °F - 53.6 °F 94% 29.86 in 3.0 mi Calm Calm - N/A   Clear
4:35 AM 55.4 °F - 53.6 °F 94% 29.86 in 7.0 mi Calm Calm - N/A   Clear
4:55 AM 55.4 °F - 53.6 °F 94% 29.86 in 2.5 mi Calm Calm - N/A   Clear
5:15 AM 55.4 °F - 53.6 °F 94% 29.85 in 1.2 mi Calm Calm - N/A   Mist
5:35 AM 55.4 °F - 53.6 °F 94% 29.85 in 2.0 mi Calm Calm - N/A   Clear
5:55 AM 53.6 °F - 53.6 °F 100% 29.85 in 2.0 mi Calm Calm - N/A   Clear
6:15 AM 53.6 °F - 51.8 °F 94% 29.85 in 5.0 mi Calm Calm - N/A   Clear
6:35 AM 53.6 °F - 51.8 °F 94% 29.86 in 2.5 mi Calm Calm - N/A   Clear
6:55 AM 53.6 °F - 51.8 °F 94% 29.86 in 2.5 mi Calm Calm - N/A   Clear
7:15 AM 51.8 °F - 50.0 °F 94% 29.86 in 1.2 mi Calm Calm - N/A   Mist
7:35 AM 51.8 °F - 50.0 °F 94% 29.86 in 2.5 mi Calm Calm - N/A   Clear
7:55 AM 51.8 °F - 50.0 °F 94% 29.86 in 3.0 mi Calm Calm - N/A   Clear
8:15 AM 51.8 °F - 50.0 °F 94% 29.87 in 3.0 mi Calm Calm - N/A   Clear
8:35 AM 50.0 °F - 50.0 °F 100% 29.88 in 5.0 mi Calm Calm - N/A   Clear
8:55 AM 50.0 °F - 50.0 °F 100% 29.88 in 5.0 mi Calm Calm - N/A   Clear
9:15 AM 51.8 °F - 50.0 °F 94% 29.89 in 5.0 mi Calm Calm - N/A   Clear
9:35 AM 51.8 °F - 50.0 °F 94% 29.89 in 5.0 mi Calm Calm - N/A   Clear
9:55 AM 55.4 °F - 53.6 °F 94% 29.90 in 7.0 mi South 4.6 mph - N/A   Scattered Clouds
10:15 AM 64.4 °F - 60.8 °F 88% 29.90 in 10.0 mi SSW 4.6 mph - N/A   Scattered Clouds
10:35 AM 75.2 °F - 69.8 °F 83% 29.90 in 10.0 mi SW 4.6 mph - N/A   Scattered Clouds
10:55 AM 78.8 °F - 71.6 °F 78% 29.90 in 10.0 mi SSW 5.8 mph - N/A   Mostly Cloudy
11:15 AM 80.6 °F 84.6 °F 71.6 °F 74% 29.90 in 10.0 mi Calm Calm - N/A   Mostly Cloudy
11:35 AM 82.4 °F 86.3 °F 69.8 °F 66% 29.90 in 10.0 mi Calm Calm - N/A   Scattered Clouds
11:55 AM 82.4 °F 86.3 °F 69.8 °F 66% 29.90 in 10.0 mi WNW 4.6 mph - N/A   Scattered Clouds
12:15 PM 84.2 °F 88.4 °F 69.8 °F 62% 29.89 in 10.0 mi SW 4.6 mph - N/A   Clear
12:35 PM 86.0 °F 90.4 °F 69.8 °F 58% 29.88 in 10.0 mi WSW 4.6 mph - N/A   Clear
12:55 PM 86.0 °F 90.4 °F 69.8 °F 58% 29.88 in 10.0 mi West 3.5 mph - N/A   Clear
1:15 PM 86.0 °F 89.4 °F 68.0 °F 55% 29.88 in 10.0 mi West 5.8 mph - N/A   Clear
1:35 PM 87.8 °F 91.4 °F 68.0 °F 52% 29.86 in 10.0 mi SW 4.6 mph - N/A   Clear
1:55 PM 87.8 °F 91.4 °F 68.0 °F 52% 29.86 in 10.0 mi WNW 6.9 mph - N/A   Clear
2:15 PM 87.8 °F 89.4 °F 64.4 °F 46% 29.86 in 10.0 mi Calm Calm - N/A   Clear
2:35 PM 87.8 °F 90.4 °F 66.2 °F 49% 29.85 in 10.0 mi Calm Calm - N/A   Clear
2:55 PM 89.6 °F 92.2 °F 66.2 °F 46% 29.84 in 10.0 mi WSW 4.6 mph - N/A   Clear
3:15 PM 87.8 °F 91.4 °F 68.0 °F 52% 29.83 in 10.0 mi WNW 6.9 mph - N/A   Scattered Clouds
3:35 PM 87.8 °F 91.4 °F 68.0 °F 52% 29.83 in 10.0 mi WNW 3.5 mph - N/A   Scattered Clouds
3:55 PM 87.8 °F 90.4 °F 66.2 °F 49% 29.83 in 10.0 mi West 4.6 mph - N/A   Mostly Cloudy
4:15 PM 87.8 °F 90.4 °F 66.2 °F 49% 29.83 in 10.0 mi West 4.6 mph - N/A   Scattered Clouds
4:35 PM 87.8 °F 89.4 °F 64.4 °F 46% 29.83 in 10.0 mi West 4.6 mph - N/A   Scattered Clouds
4:55 PM 86.0 °F 88.2 °F 66.2 °F 51% 29.83 in 10.0 mi West 3.5 mph - N/A   Mostly Cloudy
5:15 PM 86.0 °F 88.2 °F 66.2 °F 51% 29.83 in 10.0 mi WSW 3.5 mph - N/A   Mostly Cloudy
5:35 PM 84.2 °F 86.6 °F 66.2 °F 55% 29.83 in 10.0 mi West 4.6 mph - N/A   Scattered Clouds
5:55 PM 84.2 °F 87.3 °F 68.0 °F 58% 29.83 in 10.0 mi Calm Calm - N/A   Mostly Cloudy
6:15 PM 82.4 °F 85.4 °F 68.0 °F 62% 29.83 in 10.0 mi WSW 3.5 mph - N/A   Overcast
6:35 PM 82.4 °F 85.4 °F 68.0 °F 62% 29.83 in 10.0 mi WSW 3.5 mph - N/A   Mostly Cloudy
6:55 PM 80.6 °F 83.9 °F 69.8 °F 70% 29.83 in 10.0 mi Calm Calm - N/A   Scattered Clouds
7:15 PM 78.8 °F - 68.0 °F 69% 29.83 in 10.0 mi Calm Calm - N/A   Clear
7:35 PM 78.8 °F - 68.0 °F 69% 29.84 in 10.0 mi Calm Calm - N/A   Clear
7:55 PM 78.8 °F - 68.0 °F 69% 29.85 in 10.0 mi Calm Calm - N/A   Clear
8:15 PM 75.2 °F - 68.0 °F 78% 29.86 in 10.0 mi Calm Calm - N/A   Scattered Clouds
8:35 PM 71.6 °F - 68.0 °F 88% 29.86 in 10.0 mi Calm Calm - N/A   Mostly Cloudy
8:55 PM 71.6 °F - 68.0 °F 88% 29.87 in 10.0 mi Calm Calm - N/A   Overcast
9:15 PM 71.6 °F - 68.0 °F 88% 29.87 in 10.0 mi Calm Calm - N/A   Mostly Cloudy
9:35 PM 71.6 °F - 68.0 °F 88% 29.88 in 10.0 mi Calm Calm - N/A   Scattered Clouds
9:55 PM 71.6 °F - 68.0 °F 88% 29.88 in 10.0 mi Calm Calm - N/A   Mostly Cloudy
10:15 PM 71.6 °F - 68.0 °F 88% 29.89 in 10.0 mi Calm Calm - N/A   Mostly Cloudy
10:35 PM 69.8 °F - 68.0 °F 94% 29.89 in 10.0 mi Calm Calm - N/A   Clear
10:55 PM 69.8 °F - 68.0 °F 94% 29.90 in 10.0 mi Calm Calm - N/A   Scattered Clouds
11:15 PM 69.8 °F - 68.0 °F 94% 29.90 in 10.0 mi Calm Calm - N/A   Scattered Clouds
11:35 PM 69.8 °F - 66.2 °F 88% 29.90 in 10.0 mi Calm Calm - N/A   Scattered Clouds
11:55 PM 69.8 °F - 66.2 °F 88% 29.89 in 10.0 mi Calm Calm - N/A   Scattered Clouds